KK5DC Weather Reports


time (UTC)temp
F
wind
direction
speed
knots
gust
knots
rain 1hr
in
rain 24hr
in
rain mn
in
humidity
%
barometer
mb
20260507212008 66 80 1.7 7.0 0.00 0.00 0.00 69 1016.7
20260507212005 66 331 1.7 7.0 0.00 0.00 0.00 69 1016.1
20260507211523 66 13 2.6 9.6 0.00 0.00 0.00 70 1016.7
20260507211006 65 342 3.5 9.6 0.00 0.00 0.00 69 1016.8
20260507210502 65 327 3.5 8.7 0.00 0.00 0.00 69 1016.3
20260507210033 66 327 3.5 8.7 0.00 0.00 0.00 69 1016.5
20260507210016 66 12 2.6 6.1 0.00 0.00 0.00 69 1017.1
20260507205511 66 360 1.7 5.2 0.00 0.00 0.00 69 1017.1
20260507205508 66 327 1.7 7.0 0.00 0.00 0.00 69 1016.5
20260507205009 66 22 0.9 4.3 0.00 0.00 0.00 70 1017.1
20260507205007 66 321 1.7 5.2 0.00 0.00 0.00 70 1016.5
20260507204516 66 281 0.9 9.6 0.00 0.00 0.00 67 1017.2
20260507204514 66 343 0.9 9.6 0.00 0.00 0.00 67 1016.6
20260507204009 66 5 1.7 9.6 0.00 0.00 0.00 67 1017.0
20260507203512 66 332 4.3 10.4 0.00 0.00 0.00 66 1016.3
20260507203509 66 360 3.5 9.6 0.00 0.00 0.00 66 1016.9
20260507203013 67 316 1.7 7.8 0.00 0.00 0.00 67 1017.0
20260507203009 67 330 2.6 7.8 0.00 0.00 0.00 67 1016.4
20260507202507 66 360 2.6 7.8 0.00 0.00 0.00 69 1016.4
20260507202505 66 352 0.9 7.8 0.00 0.00 0.00 69 1017.0
20260507202011 65 333 0.9 7.0 0.00 0.00 0.00 70 1017.0
20260507202005 65 348 0.9 8.7 0.00 0.00 0.00 70 1016.5
20260507201518 65 5 1.7 7.0 0.00 0.00 0.00 69 1017.0
20260507201007 65 360 2.6 7.0 0.00 0.00 0.00 69 1017.1
20260507200508 65 348 2.6 7.0 0.00 0.00 0.00 73 1016.1
20260507200506 65 302 0.9 7.0 0.00 0.00 0.00 73 1016.7
20260507200027 64 340 1.7 5.2 0.00 0.00 0.00 74 1016.4
20260507200021 64 344 0.9 5.2 0.00 0.00 0.00 74 1017.1
20260507195506 64 323 1.7 10.4 0.00 0.00 0.00 72 1016.6
20260507195503 64 13 1.7 10.4 0.00 0.00 0.00 72 1017.2
20260507195007 65 44 2.6 10.4 0.00 0.00 0.00 72 1017.5
20260507194535 65 342 2.6 5.2 0.00 0.00 0.00 71 1017.2
20260507194526 65 291 1.7 7.8 0.00 0.00 0.00 70 1017.9
20260507194010 65 335 0.9 7.8 0.00 0.00 0.00 70 1017.9
20260507193506 64 340 4.3 8.7 0.00 0.00 0.00 69 1017.1
20260507193503 64 34 3.5 7.8 0.00 0.00 0.00 69 1017.7
20260507193027 65 321 1.7 7.8 0.00 0.00 0.00 72 1017.6
20260507193006 65 341 1.7 7.0 0.00 0.00 0.00 72 1018.2
20260507192510 64 340 2.6 8.7 0.00 0.00 0.00 70 1017.7
20260507192505 64 346 0.9 8.7 0.00 0.00 0.00 70 1018.3
20260507192011 64 322 1.7 8.7 0.00 0.00 0.00 69 1017.6
20260507192006 64 352 0.9 8.7 0.00 0.00 0.00 69 1018.2
20260507191514 65 40 1.7 9.6 0.00 0.00 0.00 68 1018.2
20260507191008 66 318 2.6 8.7 0.00 0.00 0.00 70 1018.2
20260507191004 66 338 2.6 8.7 0.00 0.00 0.00 70 1017.5
20260507190507 65 341 3.5 8.7 0.00 0.00 0.00 69 1017.4
20260507190017 66 12 3.5 7.8 0.00 0.00 0.00 69 1018.2
20260507185507 66 318 0.9 9.6 0.00 0.00 0.00 69 1018.2
20260507185010 66 312 4.3 8.7 0.00 0.00 0.00 68 1017.8
20260507185003 66 350 2.6 9.6 0.00 0.00 0.00 68 1018.4
20260507184526 67 322 4.3 8.7 0.00 0.00 0.00 67 1017.7
20260507184512 67 360 2.6 8.7 0.00 0.00 0.00 67 1018.3
20260507184007 67 328 2.6 8.7 0.00 0.00 0.00 68 1017.7
20260507184004 67 335 2.6 8.7 0.00 0.00 0.00 68 1018.4
20260507183511 67 325 1.7 8.7 0.00 0.00 0.00 68 1017.3
20260507183505 67 323 1.7 7.8 0.00 0.00 0.00 68 1017.9
20260507183034 67 352 3.5 8.7 0.00 0.00 0.00 67 1017.0
20260507183010 67 134 1.7 6.1 0.00 0.00 0.00 67 1017.7
20260507182509 67 323 1.7 10.4 0.00 0.00 0.00 71 1017.3
20260507182503 67 13 0.9 9.6 0.00 0.00 0.00 71 1018.0
20260507182013 66 15 2.6 10.4 0.00 0.00 0.00 67 1017.2
20260507182004 66 342 1.7 9.6 0.00 0.00 0.00 67 1017.9
20260507181525 67 343 1.7 9.6 0.00 0.00 0.00 68 1017.2
20260507181507 67 40 1.7 8.7 0.00 0.00 0.00 69 1017.9
20260507181015 67 330 2.6 9.6 0.00 0.00 0.00 67 1017.1
20260507181009 67 15 2.6 9.6 0.00 0.00 0.00 67 1017.8
20260507180507 67 17 2.6 10.4 0.00 0.00 0.00 67 1018.1
20260507180504 67 331 3.5 10.4 0.00 0.00 0.00 67 1017.4
20260507180015 66 19 2.6 10.4 0.00 0.00 0.00 68 1018.1
20260507180005 66 11 4.3 10.4 0.00 0.00 0.00 68 1017.4
20260507175508 66 73 0.9 5.2 0.00 0.00 0.00 69 1018.0
20260507175503 66 20 1.7 7.8 0.00 0.00 0.00 69 1017.3
20260507175007 66 291 1.7 6.1 0.00 0.00 0.00 68 1017.9
20260507175003 66 298 1.7 7.0 0.00 0.00 0.00 68 1017.3
20260507174540 66 52 0.9 9.6 0.00 0.00 0.00 69 1018.2
20260507174503 66 338 2.6 9.6 0.00 0.00 0.00 69 1017.5
20260507174007 65 61 1.7 9.6 0.00 0.00 0.00 69 1018.2
20260507174003 65 322 2.6 9.6 0.00 0.00 0.00 69 1017.7
20260507173509 65 352 2.6 7.0 0.00 0.00 0.00 69 1018.5
20260507173503 65 333 3.5 8.7 0.00 0.00 0.00 69 1018.0
20260507173006 65 312 1.7 8.7 0.00 0.00 0.00 72 1018.0
20260507172504 64 61 1.7 7.0 0.00 0.00 0.00 73 1018.7
20260507172004 64 333 3.5 7.8 0.00 0.00 0.00 72 1018.2
20260507171510 64 5 0.9 8.7 0.00 0.00 0.00 72 1019.1
20260507171503 64 336 2.6 8.7 0.00 0.00 0.00 72 1018.3
20260507171007 63 351 2.6 8.7 0.00 0.00 0.00 73 1019.4
20260507171002 63 328 4.3 8.7 0.00 0.00 0.00 73 1018.6
20260507170504 63 334 2.6 8.7 0.00 0.00 0.00 75 1018.8
20260507170012 63 32 2.6 7.8 0.00 0.00 0.00 73 1019.4
20260507170007 63 43 2.6 8.7 0.00 0.00 0.00 73 1018.9
20260507165508 62 42 0.9 7.8 0.00 0.00 0.00 75 1019.8
20260507165505 62 340 0.9 7.8 0.00 0.00 0.00 75 1019.3
20260507165007 62 74 1.7 7.8 0.00 0.00 0.00 75 1020.2
20260507165003 62 352 1.7 7.8 0.00 0.00 0.00 75 1019.5
20260507164508 61 325 2.6 7.8 0.00 0.00 0.00 74 1018.9
20260507164005 61 360 1.7 7.0 0.00 0.00 0.00 74 1019.5
20260507163508 61 90 0.9 5.2 0.00 0.00 0.00 74 1019.4
20260507163504 61 333 2.6 5.2 0.00 0.00 0.00 74 1018.9
20260507163007 61 33 0.9 8.7 0.00 0.00 0.00 76 1019.6
20260507163003 61 290 0.9 8.7 0.00 0.00 0.00 76 1019.0
20260507162511 60 306 2.6 8.7 0.00 0.00 0.00 75 1019.4
20260507162503 60 342 3.5 8.7 0.00 0.00 0.00 75 1018.8
20260507162004 60 330 1.7 7.8 0.00 0.00 0.00 77 1018.6
20260507161506 60 17 1.7 7.0 0.00 0.00 0.00 77 1019.4
20260507161504 60 315 3.5 7.8 0.00 0.00 0.00 77 1018.8
20260507161005 60 34 2.6 9.6 0.00 0.00 0.00 77 1019.3
20260507160504 59 342 2.6 9.6 0.00 0.00 0.00 78 1019.2
20260507160502 59 320 2.6 9.6 0.00 0.00 0.00 78 1018.6
20260507160014 59 331 1.7 8.7 0.00 0.00 0.00 77 1019.5
20260507160008 59 347 1.7 8.7 0.00 0.00 0.00 77 1018.9
20260507155506 59 308 3.5 7.8 0.00 0.00 0.00 77 1019.0
20260507155504 59 304 2.6 7.8 0.00 0.00 0.00 77 1019.6
20260507155004 59 23 1.7 7.8 0.00 0.00 0.00 78 1019.5
20260507154520 59 340 3.5 7.8 0.00 0.00 0.00 78 1019.5
20260507154506 59 312 2.6 7.8 0.00 0.00 0.00 78 1018.9
20260507154009 59 49 0.9 5.2 0.00 0.00 0.00 79 1019.8
20260507154004 59 329 0.9 8.7 0.00 0.00 0.00 79 1019.1
20260507153505 59 17 1.7 5.2 0.00 0.00 0.00 79 1019.7
20260507153023 59 327 1.7 6.1 0.00 0.00 0.00 79 1018.9
20260507153019 59 328 0.9 6.1 0.00 0.00 0.00 79 1019.6
20260507152510 59 22 1.7 6.1 0.00 0.00 0.00 79 1019.7
20260507152503 59 338 1.7 6.1 0.00 0.00 0.00 79 1019.1
20260507152004 59 352 1.7 7.0 0.00 0.00 0.00 79 1018.9
20260507152001 59 344 1.7 6.1 0.00 0.00 0.00 79 1019.6
20260507151514 59 326 1.7 7.0 0.00 0.00 0.00 79 1019.5
20260507151507 59 360 1.7 7.0 0.00 0.00 0.00 79 1018.9
20260507151003 59 343 0.9 7.0 0.00 0.00 0.00 80 1018.9
20260507150504 59 331 2.6 7.0 0.00 0.00 0.00 80 1018.9
20260507150011 59 19 0.9 7.0 0.00 0.00 0.00 80 1019.4
20260507150008 59 315 1.7 7.0 0.00 0.00 0.00 80 1018.7
20260507145507 59 297 0.9 7.8 0.00 0.00 0.00 80 1019.3
20260507145503 59 350 2.6 7.8 0.00 0.00 0.00 80 1018.8
20260507145011 59 351 1.7 10.4 0.00 0.00 0.00 79 1019.3
20260507145007 59 245 2.6 10.4 0.00 0.00 0.00 79 1018.6
20260507144507 59 298 1.7 10.4 0.00 0.00 0.00 82 1018.1
20260507144006 59 352 2.6 10.4 0.00 0.00 0.00 80 1018.9
20260507144003 59 360 3.5 10.4 0.00 0.00 0.00 80 1018.1
20260507143506 59 22 1.7 10.4 0.00 0.00 0.00 80 1018.9
20260507143020 59 315 3.5 9.6 0.00 0.00 0.00 80 1018.7
20260507143005 59 341 3.5 8.7 0.00 0.00 0.00 80 1017.8
20260507142506 59 10 1.7 7.0 0.00 0.00 0.00 81 1018.3
20260507142504 59 325 3.5 7.0 0.00 0.00 0.00 81 1017.7
20260507142006 59 14 0.9 8.7 0.00 0.00 0.00 82 1018.0
20260507141524 59 336 2.6 8.7 0.00 0.00 0.00 81 1018.9
20260507141503 59 340 2.6 8.7 0.00 0.00 0.00 81 1018.2
20260507141010 59 48 3.5 8.7 0.00 0.00 0.00 82 1018.9
20260507141002 59 350 3.5 7.8 0.00 0.00 0.00 82 1018.3
20260507140504 59 323 3.5 8.7 0.00 0.00 0.00 82 1018.3
20260507140017 59 57 1.7 7.0 0.00 0.00 0.00 82 1018.8
20260507140011 59 349 2.6 8.7 0.00 0.00 0.00 82 1018.1
20260507135504 59 333 2.6 10.4 0.00 0.00 0.00 82 1018.8
20260507135502 59 329 3.5 10.4 0.00 0.00 0.00 82 1018.1
20260507135007 59 346 1.7 10.4 0.00 0.00 0.00 83 1018.9
20260507135004 59 319 2.6 10.4 0.00 0.00 0.00 83 1018.3
20260507134512 59 38 1.7 10.4 0.00 0.00 0.00 83 1018.8
20260507134509 59 306 1.7 10.4 0.00 0.00 0.00 83 1018.1
20260507134007 59 16 2.6 10.4 0.00 0.00 0.00 83 1018.6
20260507134003 59 330 2.6 10.4 0.00 0.00 0.00 83 1017.9
20260507133507 59 352 1.7 8.7 0.00 0.00 0.00 83 1018.4
20260507133503 59 327 2.6 8.7 0.00 0.00 0.00 83 1017.7
20260507133018 59 14 1.7 10.4 0.00 0.00 0.00 83 1017.8
20260507133014 59 106 1.7 7.8 0.00 0.00 0.00 83 1018.4
20260507132508 59 342 2.6 8.7 0.00 0.00 0.00 83 1018.6
20260507132504 59 321 4.3 8.7 0.00 0.00 0.00 83 1018.0
20260507132008 59 346 1.7 10.4 0.00 0.00 0.00 83 1018.7
20260507131519 59 314 3.5 9.6 0.00 0.00 0.00 83 1018.0
20260507131517 59 44 2.6 10.4 0.00 0.00 0.00 83 1018.6
20260507131007 59 11 2.6 10.4 0.00 0.00 0.00 83 1018.5
20260507131003 59 19 3.5 10.4 0.00 0.00 0.00 83 1017.9
20260507130507 59 34 4.3 10.4 0.00 0.00 0.00 82 1018.4
20260507130502 59 317 3.5 10.4 0.00 0.00 0.00 82 1017.8
20260507130027 59 17 3.5 10.4 0.00 0.00 0.00 83 1018.5
20260507130012 59 347 3.5 10.4 0.00 0.00 0.00 83 1017.8
20260507125508 59 352 3.5 14.8 0.00 0.00 0.00 83 1018.1
20260507125004 59 26 2.6 14.8 0.00 0.00 0.00 83 1018.7
20260507125002 59 313 3.5 14.8 0.00 0.00 0.00 83 1018.0
20260507124520 59 340 3.5 9.6 0.00 0.00 0.00 83 1017.8
20260507124511 59 12 3.5 12.2 0.00 0.00 0.00 83 1018.5
20260507124004 59 319 1.7 9.6 0.00 0.00 0.00 83 1017.9
20260507123507 59 309 2.6 7.8 0.00 0.00 0.00 83 1018.5
20260507123505 59 331 2.6 9.6 0.00 0.00 0.00 83 1017.9
20260507123018 59 57 2.6 7.8 0.00 0.00 0.00 84 1018.4
20260507123014 59 352 3.5 7.0 0.00 0.00 0.00 84 1017.9
20260507122512 59 21 2.6 12.2 0.00 0.00 0.00 84 1018.6
20260507122502 59 345 1.7 12.2 0.00 0.00 0.00 84 1017.9
20260507122008 59 122 1.7 12.2 0.00 0.00 0.00 84 1018.2
20260507122006 59 328 2.6 12.2 0.00 0.00 0.00 84 1017.6
20260507121521 59 39 4.3 10.4 0.00 0.00 0.00 85 1018.2
20260507121516 59 346 4.3 9.6 0.00 0.00 0.00 85 1017.6
20260507121007 59 42 3.5 10.4 0.00 0.00 0.00 85 1017.9
20260507120509 59 309 2.6 10.4 0.00 0.00 0.00 86 1017.2
20260507120504 59 360 3.5 10.4 0.00 0.00 0.00 86 1017.8
20260507120028 59 351 1.7 8.7 0.00 0.00 0.00 86 1017.7
20260507120021 59 338 2.6 8.7 0.00 0.00 0.00 86 1017.1
20260507115509 59 352 1.7 9.6 0.00 0.00 0.00 86 1017.6
20260507115503 59 333 2.6 7.8 0.00 0.00 0.00 86 1017.0
20260507115012 59 350 1.7 9.6 0.00 0.00 0.00 86 1017.7
20260507115001 59 318 2.6 9.6 0.00 0.00 0.00 86 1017.1
20260507114516 59 5 2.6 9.6 0.00 0.00 0.00 85 1017.7
20260507114508 59 330 3.5 9.6 0.00 0.00 0.00 85 1017.1
20260507114005 59 304 2.6 10.4 0.00 0.00 0.00 85 1017.1
20260507113508 59 350 3.5 10.4 0.00 0.00 0.00 86 1017.6
20260507113503 59 346 5.2 9.6 0.00 0.00 0.00 86 1017.0
20260507113017 59 9 2.6 7.0 0.00 0.00 0.00 86 1017.7
20260507113010 59 306 2.6 9.6 0.00 0.00 0.00 86 1017.3
20260507112511 59 44 0.9 6.1 0.00 0.00 0.00 86 1017.7
20260507112505 59 9 0.9 7.0 0.00 0.00 0.00 86 1017.1
20260507112008 59 46 1.7 7.0 0.00 0.00 0.00 86 1017.8
20260507112006 59 360 2.6 7.0 0.00 0.00 0.00 86 1017.2
20260507111520 59 293 2.6 12.2 0.00 0.00 0.00 86 1017.3
20260507111513 59 301 0.9 12.2 0.00 0.00 0.00 86 1016.7
20260507111006 59 340 1.7 12.2 0.00 0.00 0.00 87 1016.7
20260507110506 59 213 1.7 7.0 0.00 0.00 0.00 86 1017.3
20260507110023 59 9 2.6 7.8 0.00 0.00 0.00 87 1017.5
20260507110016 59 5 2.6 7.8 0.00 0.00 0.00 87 1017.0
20260507105506 59 331 1.7 7.8 0.00 0.00 0.00 87 1016.6
20260507105504 59 339 1.7 7.8 0.00 0.00 0.00 87 1017.2
20260507105007 59 331 1.7 10.4 0.00 0.00 0.00 87 1016.5
20260507104522 59 352 0.9 10.4 0.00 0.00 0.00 87 1017.0
20260507104518 59 339 1.7 10.4 0.00 0.00 0.00 87 1016.4
20260507104010 59 329 1.7 7.0 0.00 0.00 0.00 87 1016.7
20260507103506 59 328 0.9 5.2 0.00 0.00 0.00 88 1017.1
20260507103501 59 22 2.6 5.2 0.00 0.00 0.00 88 1016.7
20260507103025 59 360 2.6 7.8 0.00 0.00 0.00 88 1016.7
20260507103011 59 10 0.9 7.0 0.00 0.00 0.00 88 1017.2
20260507102504 59 24 1.7 7.0 0.00 0.00 0.00 87 1017.2
20260507102007 59 328 1.7 4.3 0.00 0.00 0.00 87 1016.8
20260507101523 59 20 0.9 7.8 0.00 0.00 0.00 87 1017.3
20260507101517 59 309 0.9 7.8 0.00 0.00 0.00 87 1016.8
20260507101009 59 19 1.7 7.8 0.00 0.00 0.00 87 1017.2
20260507101006 59 346 1.7 7.8 0.00 0.00 0.00 87 1016.7
20260507100507 59 13 1.7 7.8 0.00 0.00 0.00 87 1017.1
20260507100505 59 327 1.7 7.8 0.00 0.00 0.00 87 1016.6
20260507100030 59 349 0.9 3.5 0.00 0.00 0.00 87 1017.1
20260507100026 59 349 1.7 7.0 0.00 0.00 0.00 87 1016.7
20260507095509 59 325 0.9 7.0 0.00 0.00 0.00 87 1016.6
20260507095506 59 53 0.9 7.0 0.00 0.00 0.00 87 1017.2
20260507095008 59 83 1.7 7.0 0.00 0.00 0.00 87 1016.8
20260507095006 59 329 3.5 7.0 0.00 0.00 0.00 87 1016.4
20260507094526 59 345 2.6 7.0 0.00 0.00 0.00 86 1016.7
20260507094512 59 327 1.7 7.0 0.00 0.00 0.00 86 1016.2
20260507094007 59 327 1.7 7.0 0.00 0.00 0.00 86 1016.3
20260507093507 59 327 1.7 3.5 0.00 0.00 0.00 86 1016.3
20260507093031 59 55 0.0 3.5 0.00 0.00 0.00 86 1016.9
20260507093020 59 313 0.0 3.5 0.00 0.00 0.00 86 1016.3
20260507092509 59 298 0.0 3.5 0.00 0.00 0.00 86 1016.5
20260507092507 59 327 0.9 5.2 0.00 0.00 0.00 86 1015.9
20260507092011 59 295 0.9 3.5 0.00 0.00 0.00 86 1016.2
20260507092006 59 331 1.7 5.2 0.00 0.00 0.00 86 1015.5
20260507091524 60 328 1.7 4.3 0.00 0.00 0.00 86 1015.3
20260507091517 60 36 0.9 3.5 0.00 0.00 0.00 86 1016.0
20260507091004 60 336 1.7 4.3 0.00 0.00 0.00 85 1015.6
20260507090510 60 21 0.9 2.6 0.00 0.00 0.00 86 1016.3
20260507090506 60 325 1.7 4.3 0.00 0.00 0.00 86 1015.7
20260507090024 60 352 0.9 2.6 0.00 0.00 0.00 86 1016.2
20260507090004 60 333 0.9 4.3 0.00 0.00 0.00 86 1015.7
20260507085508 60 336 0.9 4.3 0.00 0.00 0.00 85 1016.5
20260507085503 60 327 1.7 7.8 0.00 0.00 0.00 85 1015.9
20260507085005 60 275 0.0 4.3 0.00 0.00 0.00 86 1016.6
20260507085002 60 318 0.0 7.8 0.00 0.00 0.00 86 1016.0
20260507084543 60 360 1.7 4.3 0.00 0.00 0.00 85 1016.3
20260507084503 60 360 3.5 7.8 0.00 0.00 0.00 85 1015.8
20260507084010 60 232 0.9 4.3 0.00 0.00 0.00 85 1016.4
20260507084003 60 330 1.7 4.3 0.00 0.00 0.00 85 1015.8
20260507083508 60 352 0.9 6.1 0.00 0.00 0.00 85 1016.3
20260507083503 60 324 1.7 6.1 0.00 0.00 0.00 85 1015.6
20260507083025 60 360 1.7 6.1 0.00 0.00 0.00 85 1016.1
20260507083002 60 327 1.7 6.1 0.00 0.00 0.00 85 1015.5
20260507082509 60 315 0.0 7.0 0.00 0.00 0.00 85 1016.0
20260507082504 60 333 0.9 7.8 0.00 0.00 0.00 85 1015.3
20260507082011 60 317 1.7 7.0 0.00 0.00 0.00 84 1016.0
20260507082005 60 342 1.7 7.8 0.00 0.00 0.00 84 1015.4
20260507081515 60 331 0.9 5.2 0.00 0.00 0.00 84 1015.4
20260507081012 60 316 0.9 5.2 0.00 0.00 0.00 84 1016.1
20260507081003 60 348 1.7 5.2 0.00 0.00 0.00 84 1015.5
20260507080505 60 81 0.9 5.2 0.00 0.00 0.00 84 1015.9
20260507080503 60 61 0.9 5.2 0.00 0.00 0.00 84 1015.2
20260507080017 60 287 0.9 5.2 0.00 0.00 0.00 84 1016.1
20260507080011 60 337 0.9 4.3 0.00 0.00 0.00 84 1015.4
20260507075508 60 9 0.9 4.3 0.00 0.00 0.00 84 1015.9
20260507075502 60 325 1.7 7.8 0.00 0.00 0.00 84 1015.2
20260507075013 60 179 1.7 7.8 0.00 0.00 0.00 84 1015.8
20260507075002 60 346 1.7 7.8 0.00 0.00 0.00 84 1015.2
20260507074524 60 335 2.6 8.7 0.00 0.00 0.00 83 1015.8
20260507074504 60 336 3.5 8.7 0.00 0.00 0.00 83 1015.2
20260507074007 60 86 0.9 8.7 0.00 0.00 0.00 83 1015.4
20260507074004 60 342 0.9 8.7 0.00 0.00 0.00 83 1016.1
20260507073508 60 352 0.9 8.7 0.00 0.00 0.00 84 1016.0
20260507073502 60 325 2.6 8.7 0.00 0.00 0.00 84 1015.4
20260507073027 60 42 2.6 8.7 0.00 0.00 0.00 83 1016.2
20260507073008 60 319 2.6 8.7 0.00 0.00 0.00 83 1015.6
20260507072512 60 23 0.9 4.3 0.00 0.00 0.00 83 1016.4
20260507072503 60 322 2.6 5.2 0.00 0.00 0.00 83 1015.8
20260507072006 60 97 0.9 4.3 0.00 0.00 0.00 84 1016.5
20260507072003 60 109 0.9 4.3 0.00 0.00 0.00 84 1015.8
20260507071524 60 320 1.7 7.0 0.00 0.00 0.00 83 1016.3
20260507071511 60 324 0.9 7.8 0.00 0.00 0.00 83 1015.5
20260507071010 60 30 0.9 7.0 0.00 0.00 0.00 84 1016.1
20260507071003 60 326 0.9 8.7 0.00 0.00 0.00 84 1015.3
20260507070504 60 342 1.7 6.1 0.00 0.00 0.00 84 1015.7
20260507070015 60 271 0.0 2.6 0.00 0.00 0.00 84 1016.3
20260507070009 60 348 1.7 4.3 0.00 0.00 0.00 84 1015.7
20260507065505 60 292 0.0 2.6 0.00 0.00 0.00 83 1015.8
20260507065502 60 17 0.9 2.6 0.00 0.00 0.00 83 1016.5
20260507065006 60 213 0.0 2.6 0.00 0.00 0.00 83 1015.1
20260507065003 60 33 0.0 2.6 0.00 0.00 0.00 83 1016.0
20260507064523 60 352 0.9 5.2 0.00 0.00 0.00 83 1015.2
20260507064506 60 33 0.0 4.3 0.00 0.00 0.00 83 1015.7
20260507064005 60 325 1.7 5.2 0.00 0.00 0.00 83 1014.9
20260507064003 60 352 1.7 4.3 0.00 0.00 0.00 83 1015.6
20260507063504 60 315 1.7 6.1 0.00 0.00 0.00 83 1015.4
20260507063006 60 300 1.7 6.1 0.00 0.00 0.00 83 1015.6
20260507063004 60 360 0.9 7.0 0.00 0.00 0.00 83 1016.3
20260507062504 61 329 1.7 7.8 0.00 0.00 0.00 82 1015.1
20260507062003 61 324 2.6 7.8 0.00 0.00 0.00 82 1015.3
20260507061510 61 324 2.6 7.8 0.00 0.00 0.00 82 1015.6
20260507061504 61 360 1.7 7.8 0.00 0.00 0.00 82 1016.3
20260507061005 61 5 1.7 7.8 0.00 0.00 0.00 82 1015.6
20260507061003 61 326 3.5 7.8 0.00 0.00 0.00 82 1014.8
20260507060503 61 22 0.0 4.3 0.00 0.00 0.00 82 1015.6
20260507060009 61 321 3.5 7.8 0.00 0.00 0.00 82 1015.4
20260507060003 61 315 1.7 4.3 0.00 0.00 0.00 82 1016.0
20260507055504 61 342 0.9 7.8 0.00 0.00 0.00 82 1015.3
20260507055007 61 311 2.6 7.8 0.00 0.00 0.00 82 1015.5
20260507055004 61 22 1.7 7.8 0.00 0.00 0.00 82 1016.2
20260507054505 61 327 2.6 5.2 0.00 0.00 0.00 82 1015.4
20260507054005 61 313 1.7 5.2 0.00 0.00 0.00 82 1015.4
20260507054003 61 313 0.9 6.1 0.00 0.00 0.00 82 1016.0
20260507053508 61 323 1.7 7.8 0.00 0.00 0.00 82 1015.6
20260507053503 61 331 1.7 7.8 0.00 0.00 0.00 82 1016.3
20260507053005 61 22 0.9 7.8 0.00 0.00 0.00 81 1016.2
20260507052507 61 319 0.9 8.7 0.00 0.00 0.00 82 1015.5
20260507052502 61 55 0.9 6.1 0.00 0.00 0.00 82 1016.2
20260507052004 61 322 0.9 9.6 0.00 0.00 0.00 82 1015.2
20260507051505 61 38 1.7 10.4 0.00 0.00 0.00 81 1015.8
20260507051006 61 42 0.9 10.4 0.00 0.00 0.00 81 1015.8
20260507051003 61 302 2.6 10.4 0.00 0.00 0.00 81 1015.3
20260507050504 61 17 1.7 7.0 0.00 0.00 0.00 81 1015.6
20260507050502 61 13 1.7 7.8 0.00 0.00 0.00 81 1016.2
20260507050013 61 5 1.7 7.8 0.00 0.00 0.00 81 1016.2
20260507045506 61 28 2.6 10.4 0.00 0.00 0.00 81 1016.0
20260507045503 61 338 2.6 10.4 0.00 0.00 0.00 81 1015.5
20260507045007 61 308 0.9 10.4 0.00 0.00 0.00 81 1015.6
20260507045004 61 13 0.9 10.4 0.00 0.00 0.00 81 1016.2
20260507044521 61 339 2.6 10.4 0.00 0.00 0.00 82 1015.3
20260507044504 61 61 1.7 10.4 0.00 0.00 0.00 82 1016.0
20260507044008 61 317 1.7 8.7 0.00 0.00 0.00 81 1015.2
20260507044003 61 352 1.7 10.4 0.00 0.00 0.00 81 1015.8
20260507043503 61 336 1.7 8.7 0.00 0.00 0.00 81 1015.4
20260507043014 61 317 2.6 8.7 0.00 0.00 0.00 81 1015.3
20260507043005 61 94 0.9 8.7 0.00 0.00 0.00 81 1015.9
20260507042509 61 313 2.6 8.7 0.00 0.00 0.00 81 1015.5
20260507042503 61 327 2.6 9.6 0.00 0.00 0.00 81 1016.1
20260507042003 61 34 3.5 9.6 0.00 0.00 0.00 81 1016.1
20260507041504 61 302 3.5 7.8 0.00 0.00 0.00 81 1015.4
20260507041004 61 321 2.6 7.8 0.00 0.00 0.00 82 1015.5
20260507040505 61 350 2.6 7.8 0.00 0.00 0.00 81 1015.4
20260507040007 61 51 2.6 6.1 0.00 0.00 0.00 81 1015.9
20260507035505 61 319 0.9 7.8 0.00 0.00 0.00 81 1015.3
20260507035502 61 14 0.9 7.0 0.00 0.00 0.00 81 1016.0
20260507035005 61 322 2.6 7.8 0.00 0.00 0.00 81 1015.2
20260507035003 61 38 1.7 7.0 0.00 0.00 0.00 81 1015.8
20260507034512 61 328 1.7 7.0 0.00 0.00 0.00 81 1015.2
20260507034507 61 316 0.9 7.0 0.00 0.00 0.00 81 1015.8
20260507034008 61 22 1.7 6.1 0.00 0.00 0.00 81 1016.0
20260507034004 61 329 1.7 5.2 0.00 0.00 0.00 81 1015.3
20260507033505 61 336 0.9 5.2 0.00 0.00 0.00 81 1015.3
20260507033503 61 344 1.7 6.1 0.00 0.00 0.00 81 1016.0
20260507033033 61 339 1.7 11.3 0.00 0.00 0.00 81 1015.3
20260507033004 61 344 1.7 11.3 0.00 0.00 0.00 81 1016.1
20260507032504 61 17 1.7 11.3 0.00 0.00 0.00 81 1016.2
20260507032010 61 317 0.9 8.7 0.00 0.00 0.00 81 1015.0
20260507032003 61 9 0.9 8.7 0.00 0.00 0.00 81 1015.9
20260507031521 61 18 1.7 9.6 0.00 0.00 0.00 81 1014.9
20260507031508 61 14 1.7 9.6 0.00 0.00 0.00 81 1015.8
20260507031004 61 5 2.6 9.6 0.00 0.00 0.00 81 1015.4
20260507030504 61 47 2.6 8.7 0.00 0.00 0.00 81 1015.2
20260507030006 61 40 2.6 8.7 0.00 0.00 0.00 81 1015.3
20260507025504 62 319 3.5 10.4 0.00 0.00 0.00 81 1014.1
20260507025008 62 337 2.6 10.4 0.00 0.00 0.00 81 1015.6
20260507025002 62 330 2.6 7.0 0.00 0.00 0.00 81 1014.8
20260507024510 62 327 1.7 7.0 0.00 0.00 0.00 81 1015.0
20260507024504 62 36 1.7 7.0 0.00 0.00 0.00 81 1015.9
20260507024007 62 330 0.9 7.8 0.00 0.00 0.00 80 1014.6
20260507024002 62 122 0.9 7.0 0.00 0.00 0.00 80 1015.5
20260507023506 62 330 3.5 7.8 0.00 0.00 0.00 80 1014.4
20260507023020 62 325 1.7 7.0 0.00 0.00 0.00 81 1014.1
20260507023005 62 15 1.7 7.0 0.00 0.00 0.00 81 1015.0
20260507022507 62 329 1.7 7.0 0.00 0.00 0.00 81 1014.2
20260507022505 62 5 0.9 7.0 0.00 0.00 0.00 81 1015.0
20260507022006 62 328 1.7 5.2 0.00 0.00 0.00 81 1014.5
20260507021515 62 36 0.9 6.1 0.00 0.00 0.00 81 1015.4
20260507021508 62 288 1.7 7.0 0.00 0.00 0.00 81 1014.4
20260507021010 62 320 1.7 7.0 0.00 0.00 0.00 80 1014.4
20260507021004 62 34 1.7 6.1 0.00 0.00 0.00 80 1015.3
20260507020512 62 315 1.7 7.0 0.00 0.00 0.00 80 1014.3
20260507020504 62 10 1.7 5.2 0.00 0.00 0.00 80 1015.1
20260507020026 62 319 0.9 7.0 0.00 0.00 0.00 80 1014.1
20260507020005 62 19 1.7 7.0 0.00 0.00 0.00 80 1014.9
20260507015506 62 322 1.7 7.0 0.00 0.00 0.00 80 1013.7
20260507015005 62 340 1.7 7.8 0.00 0.00 0.00 80 1013.8
20260507014513 62 323 2.6 7.8 0.00 0.00 0.00 80 1013.9
20260507014508 62 348 1.7 5.2 0.00 0.00 0.00 80 1014.6
20260507014005 62 360 0.9 4.3 0.00 0.00 0.00 81 1014.5
20260507014003 62 333 1.7 4.3 0.00 0.00 0.00 81 1013.8
20260507013503 62 31 0.9 5.2 0.00 0.00 0.00 81 1014.3
20260507013013 62 332 1.7 7.0 0.00 0.00 0.00 80 1013.5
20260507013009 62 41 0.0 5.2 0.00 0.00 0.00 80 1014.1
20260507012508 62 338 1.7 7.0 0.00 0.00 0.00 80 1013.6
20260507012505 62 330 0.0 3.5 0.00 0.00 0.00 80 1014.3
20260507012003 62 342 1.7 7.0 0.00 0.00 0.00 80 1014.1
20260507011517 62 346 0.9 7.8 0.00 0.00 0.00 81 1013.3
20260507011514 62 46 1.7 7.0 0.00 0.00 0.00 81 1013.9
20260507011007 62 336 1.7 7.8 0.00 0.00 0.00 81 1013.2
20260507011003 62 5 0.9 5.2 0.00 0.00 0.00 81 1014.0
20260507010506 62 14 0.9 7.0 0.00 0.00 0.00 81 1013.8
20260507010503 62 330 0.9 7.0 0.00 0.00 0.00 81 1013.1
20260507010025 62 338 0.9 7.0 0.00 0.00 0.00 80 1013.0
20260507010018 62 300 0.9 7.0 0.00 0.00 0.00 80 1013.8
20260507005506 62 332 1.7 5.2 0.00 0.00 0.00 80 1012.8
20260507005503 62 336 0.9 6.1 0.00 0.00 0.00 80 1013.6
20260507005010 62 332 1.7 6.1 0.00 0.00 0.00 80 1012.9
20260507005007 62 10 0.9 6.1 0.00 0.00 0.00 80 1013.7
20260507004515 62 334 0.9 8.7 0.00 0.00 0.00 81 1013.1
20260507004505 62 352 0.9 8.7 0.00 0.00 0.00 81 1013.8
20260507004004 62 14 1.7 8.7 0.00 0.00 0.00 80 1013.6
20260507003504 62 314 0.9 5.2 0.00 0.00 0.00 80 1013.5
20260507003007 62 17 0.9 5.2 0.00 0.00 0.00 79 1013.5
20260507002504 62 257 0.9 4.3 0.00 0.00 0.00 80 1013.5
20260507002010 62 333 1.7 7.0 0.00 0.00 0.00 79 1012.6
20260507002003 62 321 1.7 7.0 0.00 0.00 0.00 79 1013.4
20260507001518 62 327 0.9 11.3 0.00 0.00 0.00 80 1012.5
20260507001505 62 335 1.7 11.3 0.00 0.00 0.00 80 1013.3
20260507001004 63 341 1.7 11.3 0.00 0.00 0.00 79 1013.5
20260507000508 63 345 0.9 8.7 0.00 0.00 0.00 79 1013.5
20260507000506 63 346 1.7 7.0 0.00 0.00 0.00 79 1012.7
20260507000007 63 338 1.7 10.4 0.00 0.00 0.00 79 1012.7
20260506235505 63 329 2.6 8.7 0.00 0.00 0.00 78 1012.7
20260506235007 63 341 1.7 5.2 0.00 0.00 0.00 78 1013.2
20260506235003 63 338 1.7 5.2 0.00 0.00 0.00 78 1012.4
20260506234509 63 338 1.7 7.8 0.00 0.00 0.00 79 1012.6
20260506234004 63 352 1.7 7.8 0.00 0.00 0.00 78 1013.4
20260506234001 63 332 2.6 7.8 0.00 0.00 0.00 78 1012.5
20260506233505 63 344 1.7 5.2 0.00 0.00 0.00 78 1012.4
20260506233012 63 323 2.6 7.8 0.00 0.00 0.00 78 1012.5
20260506233010 63 54 1.7 7.8 0.00 0.00 0.00 78 1013.3
20260506232503 63 27 0.9 9.6 0.00 0.00 0.00 78 1013.3
20260506232005 63 333 3.5 10.4 0.00 0.00 0.00 77 1012.4
20260506232003 63 338 3.5 10.4 0.00 0.00 0.00 77 1013.3
20260506231517 64 227 2.6 10.4 0.00 0.00 0.00 76 1012.4
20260506231508 64 18 2.6 10.4 0.00 0.00 0.00 76 1013.2
20260506231007 64 349 0.9 7.8 0.00 0.00 0.00 77 1012.2
20260506231004 64 352 1.7 8.7 0.00 0.00 0.00 77 1013.0
20260506230504 65 352 1.7 7.8 0.00 0.00 0.00 76 1013.0
20260506230502 65 337 3.5 7.8 0.00 0.00 0.00 76 1012.3
20260506230014 65 290 1.7 8.7 0.00 0.00 0.00 78 1012.3
20260506230012 65 360 1.7 8.7 0.00 0.00 0.00 78 1012.9
20260506225508 65 336 1.7 8.7 0.00 0.00 0.00 76 1012.9
20260506225004 65 329 2.6 7.8 0.00 0.00 0.00 75 1012.7
20260506225002 65 323 1.7 7.8 0.00 0.00 0.00 75 1012.1
20260506224507 66 313 1.7 7.8 0.00 0.00 0.00 76 1012.1
20260506224006 66 331 1.7 7.8 0.00 0.00 0.00 74 1012.8
20260506224004 66 320 0.9 8.7 0.00 0.00 0.00 74 1012.2
20260506223506 66 348 2.6 7.0 0.00 0.00 0.00 75 1012.8
20260506223501 66 304 2.6 9.6 0.00 0.00 0.00 75 1012.2
20260506223015 66 336 1.7 8.7 0.00 0.00 0.00 75 1012.6
20260506223006 66 345 1.7 8.7 0.00 0.00 0.00 75 1012.1
20260506222506 67 336 3.5 8.7 0.00 0.00 0.00 74 1012.1
20260506222008 67 91 1.7 7.8 0.00 0.00 0.00 75 1012.7
20260506221510 66 360 2.6 9.6 0.00 0.00 0.00 73 1012.5
20260506221004 67 47 4.3 0.0 0.00 0.00 0.00 73 1012.3
20260506221002 67 327 2.6 9.6 0.00 0.00 0.00 73 1011.9
20260506220506 67 334 1.7 8.7 0.00 0.00 0.00 74 1011.9
20260506220504 67 306 0.9 7.0 0.00 0.00 0.00 74 1012.4
20260506220031 69 320 3.5 13.0 0.00 0.00 0.00 71 1011.9
20260506220029 69 59 2.6 13.0 0.00 0.00 0.00 71 1012.4
20260506215506 69 38 1.7 13.0 0.00 0.00 0.00 71 1012.4
20260506215503 69 331 0.9 13.0 0.00 0.00 0.00 71 1011.8
20260506215012 69 240 1.7 10.4 0.00 0.00 0.00 72 1012.4
20260506215006 69 331 2.6 10.4 0.00 0.00 0.00 72 1011.9
20260506214524 69 311 2.6 13.9 0.00 0.00 0.00 70 1011.7
20260506214522 69 22 2.6 13.9 0.00 0.00 0.00 70 1012.3
20260506214008 69 352 5.2 13.9 0.00 0.00 0.00 71 1012.3
20260506214006 69 296 6.1 13.9 0.00 0.00 0.00 71 1011.7
20260506213508 69 32 3.5 10.4 0.00 0.00 0.00 72 1012.3
20260506213503 69 346 4.3 12.2 0.00 0.00 0.00 72 1011.8
20260506213030 69 330 2.6 10.4 0.00 0.00 0.00 71 1012.5
20260506213006 69 308 3.5 10.4 0.00 0.00 0.00 71 1012.0
20260506212508 69 5 3.5 9.6 0.00 0.00 0.00 73 1012.7
20260506212503 69 343 3.5 9.6 0.00 0.00 0.00 73 1012.2